Location: TAAA CAC
(31.8680°N, 109.5150°W)
Time: 21:16:57
(UTC-07:00)

Hubble Space Telescope - Pass Details

Date: 15 March 2026
Orbit: 474 x 477 km, 28.5° (Epoch: 20 April)

Event Time Altitude Azimuth Distance (km) Brightness Sun altitude
Rises 20:51:49 0° 266° (W) 2,504 5.1 -31.2°
Reaches altitude 10° 20:54:20 10° 251° (WSW) 1,625 3.8 -31.7°
Enters shadow 20:54:27 11° 250° (WSW) 1,588 3.7 -31.7°
